EUS25FG BGGH-EGPF

Flight info

Callsign EUS25FG
Flight time N/A
Altitude 37000
Route EVULO1A EVULO DCT 6440N DCT 6330N DCT H6122 DCT 6015N/N0432F370 DCT BRUCE
Aircraft A320/M-SDE3FGHIRWY/LB1

Departure

Time N/A
Airport Nuuk International Airport (BGGH)

Arrival

Time 2026-04-30 20:24
Airport Glasgow Airport (EGPF)
Time Latitude Longitude Altitude Speed Heading
2026-04-30 17:39 64.11603 -41.71565 34892 ft 495 kts 99°
2026-04-30 17:42 64.06602 -40.93607 34901 ft 496 kts 100°
2026-04-30 17:43 64.03942 -40.54759 34903 ft 495 kts 100°
2026-04-30 17:44 64.00600 -40.08155 34901 ft 496 kts 101°
2026-04-30 17:47 63.96007 -39.38102 34899 ft 497 kts 100°
2026-04-30 17:48 63.92235 -38.83675 34900 ft 498 kts 101°
2026-04-30 17:50 63.87696 -38.21539 34886 ft 499 kts 101°
2026-04-30 17:52 63.84102 -37.74980 34935 ft 503 kts 102°
2026-04-30 17:53 63.80965 -37.35983 36180 ft 504 kts 102°
2026-04-30 17:54 63.78385 -37.04899 36885 ft 502 kts 102°
2026-04-30 17:56 63.73044 -36.43045 36880 ft 502 kts 103°
2026-04-30 17:58 63.68866 -35.96730 36879 ft 503 kts 103°
2026-04-30 18:00 63.63299 -35.37749 36867 ft 502 kts 104°
2026-04-30 18:01 63.59538 -34.99412 36861 ft 502 kts 104°
2026-04-30 18:02 63.54889 -34.53513 36864 ft 503 kts 104°
2026-04-30 18:04 63.50087 -34.07737 36875 ft 503 kts 105°
2026-04-30 18:06 63.43462 -33.46988 36859 ft 503 kts 105°
2026-04-30 18:08 63.37470 -32.94126 36858 ft 501 kts 106°
2026-04-30 18:10 63.30398 -32.34152 36854 ft 500 kts 107°
2026-04-30 18:11 63.24012 -31.81980 36861 ft 499 kts 107°
2026-04-30 18:13 63.19350 -31.44933 36862 ft 498 kts 108°
2026-04-30 18:14 63.14589 -31.08093 36856 ft 498 kts 108°
2026-04-30 18:15 63.08776 -30.64048 36859 ft 497 kts 109°
2026-04-30 18:16 63.04816 -30.34828 36858 ft 497 kts 109°
2026-04-30 18:17 63.02824 -30.20347 36860 ft 497 kts 109°
2026-04-30 18:18 62.99791 -29.98504 36862 ft 497 kts 110°
2026-04-30 18:18 62.97651 -29.84050 36865 ft 497 kts 111°
2026-04-30 18:19 62.95422 -29.69667 36866 ft 497 kts 111°
2026-04-30 18:19 62.93182 -29.55305 36866 ft 497 kts 111°
2026-04-30 18:20 62.90950 -29.40940 36864 ft 497 kts 111°
2026-04-30 18:20 62.88713 -29.26600 36865 ft 497 kts 111°
2026-04-30 18:21 62.86455 -29.12295 36863 ft 497 kts 111°
2026-04-30 18:21 62.84187 -28.98013 36862 ft 497 kts 111°
2026-04-30 18:22 62.81907 -28.83747 36860 ft 496 kts 111°
2026-04-30 18:22 62.78450 -28.62406 36864 ft 497 kts 112°
2026-04-30 18:23 62.76130 -28.48204 36864 ft 496 kts 112°
2026-04-30 18:23 62.73800 -28.34030 36863 ft 496 kts 112°
2026-04-30 18:24 62.70284 -28.12833 36868 ft 496 kts 112°
2026-04-30 18:25 62.67933 -27.98823 36876 ft 496 kts 112°
2026-04-30 18:25 62.64352 -27.77727 36873 ft 496 kts 112°
2026-04-30 18:26 62.60733 -27.56596 36879 ft 495 kts 112°
2026-04-30 18:27 62.57108 -27.35720 36881 ft 495 kts 113°
2026-04-30 18:28 62.53454 -27.14813 36885 ft 494 kts 113°
2026-04-30 18:28 62.49769 -26.93993 36883 ft 493 kts 114°
2026-04-30 18:29 62.44809 -26.66376 36890 ft 492 kts 114°
2026-04-30 18:30 62.39816 -26.38894 36895 ft 491 kts 114°
2026-04-30 18:31 62.36045 -26.18375 36896 ft 491 kts 115°
2026-04-30 18:32 62.32244 -25.97910 36896 ft 491 kts 115°
2026-04-30 18:33 62.28389 -25.77525 36899 ft 491 kts 115°
2026-04-30 18:33 62.24536 -25.57164 36899 ft 491 kts 115°
2026-04-30 18:34 62.20640 -25.36881 36902 ft 490 kts 115°
2026-04-30 18:35 62.18041 -25.23379 36900 ft 491 kts 116°
2026-04-30 18:35 62.15413 -25.09905 36900 ft 491 kts 116°
2026-04-30 18:36 62.11431 -24.89751 36908 ft 491 kts 116°
2026-04-30 18:37 62.07432 -24.69623 36908 ft 491 kts 116°
2026-04-30 18:37 62.04785 -24.56313 36926 ft 491 kts 116°
2026-04-30 18:38 62.02095 -24.42938 36927 ft 491 kts 117°
2026-04-30 18:38 61.99370 -24.29608 36930 ft 491 kts 117°
2026-04-30 18:39 61.96656 -24.16284 36932 ft 491 kts 117°
2026-04-30 18:39 61.93945 -24.02962 36934 ft 491 kts 117°
2026-04-30 18:40 61.91195 -23.89701 36938 ft 491 kts 117°
2026-04-30 18:40 61.88444 -23.76440 36944 ft 491 kts 117°
2026-04-30 18:41 61.85672 -23.63221 36948 ft 491 kts 117°
2026-04-30 18:41 61.82878 -23.50031 36946 ft 491 kts 117°
2026-04-30 18:42 61.80087 -23.36855 36950 ft 490 kts 118°
2026-04-30 18:42 61.75878 -23.17166 36958 ft 490 kts 118°
2026-04-30 18:45 61.60717 -22.47664 36992 ft 489 kts 118°
2026-04-30 18:46 61.57829 -22.34735 36997 ft 489 kts 119°
2026-04-30 18:46 61.54933 -22.21834 37006 ft 489 kts 119°
2026-04-30 18:47 61.52049 -22.09053 37007 ft 488 kts 119°
2026-04-30 18:47 61.49161 -21.96190 37020 ft 489 kts 117°
2026-04-30 18:48 61.46682 -21.82920 37020 ft 490 kts 112°
2026-04-30 18:48 61.44432 -21.69458 37026 ft 490 kts 112°
2026-04-30 18:49 61.42102 -21.56090 37027 ft 489 kts 114°
2026-04-30 18:49 61.39632 -21.42769 37032 ft 488 kts 115°
2026-04-30 18:50 61.37165 -21.29672 37032 ft 488 kts 114°
2026-04-30 18:50 61.34691 -21.16503 37041 ft 488 kts 114°
2026-04-30 18:51 61.32223 -21.03349 37045 ft 487 kts 114°
2026-04-30 18:51 61.29747 -20.90230 37050 ft 487 kts 115°
2026-04-30 18:52 61.27261 -20.77145 37052 ft 486 kts 115°
2026-04-30 18:52 61.24761 -20.64104 37063 ft 485 kts 115°
2026-04-30 18:53 61.22248 -20.51110 37061 ft 485 kts 115°
2026-04-30 18:53 61.19749 -20.38230 37065 ft 484 kts 115°
2026-04-30 18:54 61.17222 -20.25306 37074 ft 483 kts 115°
2026-04-30 18:54 61.14682 -20.12420 37075 ft 483 kts 115°
2026-04-30 18:55 61.12140 -19.99570 37083 ft 482 kts 115°
2026-04-30 18:55 61.08315 -19.80358 37082 ft 481 kts 116°
2026-04-30 18:56 61.04458 -19.61236 37093 ft 480 kts 116°
2026-04-30 18:57 61.00581 -19.42198 37095 ft 479 kts 116°
2026-04-30 18:57 60.97988 -19.29550 37098 ft 479 kts 116°
2026-04-30 18:58 60.94087 -19.10652 37104 ft 478 kts 116°
2026-04-30 18:59 60.90171 -18.91839 37110 ft 477 kts 116°
2026-04-30 19:00 60.84932 -18.66992 37119 ft 475 kts 117°
2026-04-30 19:01 60.79644 -18.42225 37136 ft 474 kts 117°
2026-04-30 19:02 60.75668 -18.23744 37133 ft 472 kts 117°
2026-04-30 19:03 60.70335 -17.99248 37139 ft 471 kts 117°
2026-04-30 19:04 60.64970 -17.74889 37145 ft 470 kts 117°
2026-04-30 19:05 60.59573 -17.50649 37141 ft 470 kts 117°
2026-04-30 19:06 60.54127 -17.26523 37137 ft 470 kts 117°
2026-04-30 19:06 60.50017 -17.08465 37144 ft 470 kts 118°
2026-04-30 19:07 60.45886 -16.90451 37148 ft 470 kts 118°
2026-04-30 19:08 60.40348 -16.66513 37152 ft 469 kts 118°
2026-04-30 19:09 60.36164 -16.48638 37157 ft 469 kts 118°
2026-04-30 19:09 60.33357 -16.36761 37167 ft 468 kts 118°
2026-04-30 19:10 60.27740 -16.13134 37182 ft 466 kts 118°
2026-04-30 19:11 60.23513 -15.95528 37189 ft 465 kts 118°
2026-04-30 19:12 60.20712 -15.83924 37190 ft 464 kts 118°
2026-04-30 19:12 60.17886 -15.72282 37192 ft 463 kts 118°
2026-04-30 19:13 60.12230 -15.49147 37198 ft 461 kts 119°
2026-04-30 19:14 60.09395 -15.37644 37194 ft 460 kts 119°
2026-04-30 19:14 60.06552 -15.26188 37200 ft 459 kts 119°
2026-04-30 19:15 60.03706 -15.14766 37199 ft 458 kts 120°
2026-04-30 19:15 59.99293 -14.97890 37197 ft 453 kts 127°
2026-04-30 19:16 59.95778 -14.87457 37200 ft 453 kts 128°
2026-04-30 19:17 59.90483 -14.71897 37199 ft 452 kts 128°
2026-04-30 19:17 59.85214 -14.56460 37196 ft 451 kts 128°
2026-04-30 19:18 59.79891 -14.40967 37201 ft 450 kts 128°
2026-04-30 19:19 59.76376 -14.30793 37200 ft 449 kts 129°
2026-04-30 19:19 59.71061 -14.15501 37201 ft 449 kts 129°
2026-04-30 19:20 59.67516 -14.05344 37204 ft 448 kts 129°
2026-04-30 19:21 59.62190 -13.90171 37209 ft 447 kts 129°
2026-04-30 19:22 59.55072 -13.70087 37213 ft 446 kts 130°
2026-04-30 19:23 59.44377 -13.40209 37202 ft 444 kts 130°
2026-04-30 19:24 59.39021 -13.25381 37205 ft 443 kts 130°
2026-04-30 19:25 59.30084 -13.00795 37194 ft 442 kts 130°
2026-04-30 19:26 59.22907 -12.81281 37191 ft 442 kts 130°
2026-04-30 19:27 59.17513 -12.66713 37190 ft 441 kts 130°
2026-04-30 19:28 59.12107 -12.52222 37192 ft 441 kts 131°
2026-04-30 19:29 59.04879 -12.32991 37189 ft 440 kts 131°
2026-04-30 19:30 58.97676 -12.13911 37191 ft 439 kts 131°
2026-04-30 19:31 58.90426 -11.94904 37187 ft 438 kts 131°
2026-04-30 19:31 58.84971 -11.80736 37191 ft 437 kts 131°
2026-04-30 19:32 58.81338 -11.71323 37199 ft 437 kts 131°
2026-04-30 19:32 58.77704 -11.61938 37195 ft 436 kts 131°
2026-04-30 19:33 58.74066 -11.52580 37196 ft 436 kts 131°
2026-04-30 19:33 58.70427 -11.43263 37195 ft 435 kts 131°
2026-04-30 19:34 58.67399 -11.35539 37189 ft 435 kts 131°
2026-04-30 19:35 58.61341 -11.20160 37191 ft 434 kts 132°
2026-04-30 19:35 58.57695 -11.10941 37192 ft 433 kts 132°
2026-04-30 19:36 58.54637 -11.03250 37194 ft 433 kts 132°
2026-04-30 19:36 58.49158 -10.89536 37193 ft 432 kts 132°
2026-04-30 19:37 58.45501 -10.80431 37187 ft 431 kts 132°
2026-04-30 19:37 58.41874 -10.71418 37192 ft 431 kts 132°
2026-04-30 19:38 58.38245 -10.62414 37190 ft 430 kts 132°
2026-04-30 19:38 58.34588 -10.53402 37191 ft 429 kts 132°
2026-04-30 19:39 58.30925 -10.44444 37192 ft 429 kts 132°
2026-04-30 19:39 58.27267 -10.35503 37190 ft 428 kts 132°
2026-04-30 19:40 58.23612 -10.26586 37194 ft 427 kts 132°
2026-04-30 19:40 58.19962 -10.17705 37192 ft 426 kts 132°
2026-04-30 19:41 58.16308 -10.08874 37192 ft 425 kts 133°
2026-04-30 19:41 58.12653 -10.00078 37193 ft 424 kts 133°
2026-04-30 19:42 58.09001 -9.91325 37191 ft 423 kts 133°
2026-04-30 19:42 58.05374 -9.82657 37190 ft 423 kts 133°
2026-04-30 19:43 58.01731 -9.73964 37188 ft 422 kts 133°
2026-04-30 19:44 57.96267 -9.60973 37184 ft 421 kts 133°
2026-04-30 19:44 57.92621 -9.52361 37182 ft 420 kts 133°
2026-04-30 19:45 57.88970 -9.43779 37183 ft 420 kts 133°
2026-04-30 19:45 57.85320 -9.35217 37181 ft 420 kts 133°
2026-04-30 19:46 57.81662 -9.26686 37180 ft 419 kts 133°
2026-04-30 19:46 57.78005 -9.18177 37179 ft 419 kts 133°
2026-04-30 19:47 57.74348 -9.09671 37178 ft 419 kts 133°
2026-04-30 19:47 57.70714 -9.01259 37182 ft 418 kts 133°
2026-04-30 19:48 57.67045 -8.92835 37180 ft 418 kts 133°
2026-04-30 19:48 57.63377 -8.84428 37182 ft 417 kts 133°
2026-04-30 19:49 57.59712 -8.76046 37179 ft 417 kts 133°
2026-04-30 19:49 57.54214 -8.63516 37179 ft 416 kts 133°
2026-04-30 19:50 57.50546 -8.55194 37179 ft 416 kts 134°
2026-04-30 19:50 57.46878 -8.46903 37174 ft 415 kts 134°
2026-04-30 19:51 57.43201 -8.38633 37168 ft 415 kts 134°
2026-04-30 19:51 57.39522 -8.30396 37168 ft 414 kts 134°
2026-04-30 19:52 57.35847 -8.22166 37163 ft 414 kts 134°
2026-04-30 19:52 57.32172 -8.13954 37157 ft 414 kts 134°
2026-04-30 19:53 57.28511 -8.05833 37158 ft 414 kts 134°
2026-04-30 19:53 57.24813 -7.97687 37158 ft 414 kts 134°
2026-04-30 19:54 57.21111 -7.89554 37156 ft 414 kts 134°
2026-04-30 19:54 57.17420 -7.81429 37155 ft 414 kts 134°
2026-04-30 19:55 57.13722 -7.73309 37158 ft 413 kts 134°
2026-04-30 19:55 57.10014 -7.65218 37160 ft 413 kts 134°
2026-04-30 19:56 57.06304 -7.57141 37159 ft 414 kts 134°
2026-04-30 19:56 57.02579 -7.49078 37161 ft 414 kts 134°
2026-04-30 19:57 56.98854 -7.41037 37161 ft 414 kts 134°
2026-04-30 19:57 56.95129 -7.32996 37162 ft 414 kts 134°
2026-04-30 19:58 56.91394 -7.24971 36988 ft 414 kts 134°
2026-04-30 19:58 56.89524 -7.20969 36720 ft 413 kts 135°
2026-04-30 19:58 56.87656 -7.16981 36428 ft 411 kts 135°
2026-04-30 19:59 56.85806 -7.13039 35944 ft 407 kts 135°
2026-04-30 19:59 56.83973 -7.09130 35450 ft 403 kts 135°
2026-04-30 19:59 56.80340 -7.01408 34424 ft 399 kts 135°
2026-04-30 20:00 56.78533 -6.97582 33862 ft 397 kts 135°
2026-04-30 20:00 56.76737 -6.93789 33336 ft 394 kts 135°
2026-04-30 20:00 56.74952 -6.90028 32786 ft 391 kts 135°
2026-04-30 20:00 56.73176 -6.86295 32239 ft 389 kts 135°
2026-04-30 20:01 56.69616 -6.78822 31118 ft 393 kts 134°
2026-04-30 20:01 56.67850 -6.75107 30566 ft 393 kts 134°
2026-04-30 20:01 56.66067 -6.71348 29962 ft 392 kts 134°
2026-04-30 20:02 56.62534 -6.63926 28847 ft 384 kts 135°
2026-04-30 20:02 56.60786 -6.60282 28293 ft 381 kts 135°
2026-04-30 20:03 56.57332 -6.53104 27233 ft 374 kts 135°
2026-04-30 20:03 56.55627 -6.49566 26707 ft 371 kts 135°
2026-04-30 20:03 56.53935 -6.46060 26195 ft 368 kts 135°
2026-04-30 20:03 56.52258 -6.42591 25686 ft 365 kts 135°
2026-04-30 20:04 56.50593 -6.39153 25199 ft 361 kts 136°
2026-04-30 20:04 56.48941 -6.35754 24713 ft 358 kts 136°
2026-04-30 20:04 56.47306 -6.32385 24260 ft 354 kts 136°
2026-04-30 20:05 56.44088 -6.25734 23307 ft 347 kts 136°
2026-04-30 20:05 56.42509 -6.22480 22878 ft 342 kts 136°
2026-04-30 20:05 56.39400 -6.16118 22049 ft 335 kts 136°
2026-04-30 20:06 56.37864 -6.12988 21636 ft 332 kts 136°
2026-04-30 20:06 56.36363 -6.09926 21208 ft 329 kts 136°
2026-04-30 20:06 56.34850 -6.06845 20794 ft 326 kts 136°
2026-04-30 20:06 56.33350 -6.03797 20364 ft 324 kts 136°
2026-04-30 20:07 56.31862 -6.00774 19948 ft 322 kts 136°
2026-04-30 20:07 56.30382 -5.97768 19509 ft 320 kts 136°
2026-04-30 20:07 56.27442 -5.91817 18661 ft 316 kts 136°
2026-04-30 20:08 56.25985 -5.88868 18219 ft 315 kts 136°
2026-04-30 20:08 56.24541 -5.85929 17768 ft 313 kts 135°
2026-04-30 20:08 56.23302 -5.82698 17272 ft 317 kts 125°
2026-04-30 20:08 56.22326 -5.79043 16493 ft 329 kts 120°
2026-04-30 20:09 56.21380 -5.75308 16028 ft 328 kts 120°
2026-04-30 20:09 56.20439 -5.71589 15578 ft 326 kts 120°
2026-04-30 20:09 56.18566 -5.64224 14697 ft 323 kts 120°
2026-04-30 20:10 56.16692 -5.56921 13780 ft 322 kts 120°
2026-04-30 20:10 56.15755 -5.53287 13321 ft 320 kts 120°
2026-04-30 20:10 56.14822 -5.49675 12847 ft 318 kts 120°
2026-04-30 20:11 56.12971 -5.42509 11938 ft 316 kts 119°
2026-04-30 20:11 56.12061 -5.39001 11489 ft 315 kts 119°
2026-04-30 20:11 56.11136 -5.35443 11004 ft 314 kts 119°
2026-04-30 20:12 56.09313 -5.28436 10451 ft 301 kts 118°
2026-04-30 20:12 56.08445 -5.25104 10326 ft 290 kts 118°
2026-04-30 20:12 56.07603 -5.21881 10144 ft 282 kts 119°
2026-04-30 20:13 56.06769 -5.18703 10086 ft 281 kts 119°
2026-04-30 20:13 56.05969 -5.15640 9874 ft 264 kts 119°
2026-04-30 20:13 56.05153 -5.12752 9314 ft 256 kts 127°
2026-04-30 20:13 56.04050 -5.10335 8981 ft 249 kts 139°
2026-04-30 20:14 56.02740 -5.08356 8684 ft 246 kts 143°
2026-04-30 20:14 56.01426 -5.06415 8383 ft 244 kts 143°
2026-04-30 20:14 56.00124 -5.04483 8083 ft 243 kts 143°
2026-04-30 20:14 55.98824 -5.02557 7784 ft 242 kts 143°
2026-04-30 20:15 55.97534 -5.00648 7482 ft 241 kts 143°
2026-04-30 20:15 55.96248 -4.98748 7189 ft 239 kts 143°
2026-04-30 20:15 55.94966 -4.96856 6901 ft 239 kts 142°
2026-04-30 20:15 55.93687 -4.94970 6606 ft 238 kts 142°
2026-04-30 20:16 55.92414 -4.93096 6152 ft 236 kts 142°
2026-04-30 20:16 55.91148 -4.91230 5834 ft 236 kts 142°
2026-04-30 20:16 55.89888 -4.89371 5534 ft 234 kts 142°
2026-04-30 20:16 55.88633 -4.87523 5250 ft 233 kts 142°
2026-04-30 20:17 55.87384 -4.85687 4952 ft 232 kts 142°
2026-04-30 20:17 55.86141 -4.83863 4663 ft 231 kts 142°
2026-04-30 20:17 55.84903 -4.82044 4375 ft 230 kts 142°
2026-04-30 20:17 55.83669 -4.80232 4091 ft 229 kts 142°
2026-04-30 20:18 55.82440 -4.78433 3817 ft 228 kts 142°
2026-04-30 20:18 55.81235 -4.76676 3668 ft 218 kts 142°
2026-04-30 20:18 55.80095 -4.75014 3614 ft 208 kts 142°
2026-04-30 20:18 55.78977 -4.73386 3578 ft 207 kts 142°
2026-04-30 20:19 55.77871 -4.71776 3531 ft 201 kts 142°
2026-04-30 20:19 55.77170 -4.70756 3496 ft 194 kts 142°
2026-04-30 20:19 55.75830 -4.68760 3297 ft 185 kts 135°
2026-04-30 20:19 55.75320 -4.66728 3139 ft 186 kts 94°
2026-04-30 20:20 55.75751 -4.64568 3007 ft 194 kts 52°
2026-04-30 20:20 55.76694 -4.62880 2801 ft 189 kts 50°
2026-04-30 20:20 55.77592 -4.61202 2533 ft 185 kts 50°
2026-04-30 20:20 55.78472 -4.59561 2292 ft 182 kts 51°
2026-04-30 20:21 55.79318 -4.57992 2060 ft 169 kts 51°
2026-04-30 20:21 55.80103 -4.56536 1835 ft 158 kts 51°
2026-04-30 20:21 55.80858 -4.55130 1621 ft 157 kts 50°
2026-04-30 20:21 55.81591 -4.53769 1421 ft 149 kts 50°
2026-04-30 20:22 55.82290 -4.52469 1220 ft 142 kts 50°
2026-04-30 20:22 55.82965 -4.51213 1033 ft 138 kts 49°
2026-04-30 20:22 55.83627 -4.49992 844 ft 136 kts 48°
2026-04-30 20:22 55.84266 -4.48787 664 ft 133 kts 48°
2026-04-30 20:23 55.84902 -4.47611 470 ft 133 kts 47°
2026-04-30 20:23 55.85538 -4.46430 296 ft 134 kts 48°
2026-04-30 20:23 55.86173 -4.45239 140 ft 131 kts 49°
2026-04-30 20:23 55.86786 -4.44083 35 ft 121 kts 47°
2026-04-30 20:24 55.87260 -4.43201 31 ft 74 kts 46°
2026-04-30 20:24 55.87501 -4.42750 33 ft 36 kts 46°
2026-04-30 20:24 55.87664 -4.42447 32 ft 32 kts 46°
2026-04-30 20:24 55.87748 -4.42232 28 ft 15 kts 102°
2026-04-30 20:25 55.87566 -4.42254 29 ft 14 kts 226°
2026-04-30 20:25 55.87503 -4.42375 31 ft 12 kts 227°
2026-04-30 20:26 55.87366 -4.42602 30 ft 19 kts 205°
2026-04-30 20:26 55.87127 -4.42764 29 ft 17 kts 201°
2026-04-30 20:26 55.87019 -4.42833 30 ft 16 kts 200°
2026-04-30 20:27 55.86847 -4.43030 32 ft 13 kts 252°
2026-04-30 20:27 55.86785 -4.43417 30 ft 20 kts 254°
2026-04-30 20:28 55.86644 -4.43575 30 ft 13 kts 163°
2026-04-30 20:28 55.86540 -4.43537 31 ft 4 kts 213°
2026-04-30 20:29 55.86522 -4.43631 31 ft 4 kts 253°
2026-04-30 20:30 55.86520 -4.43647 31 ft 0 kts 253°